Regional Weather Roundup
Issued by NWS

Home | Current Version | Previous Version | Text Only | Print | Product List | Glossary On
Versions: 1 2 3 4 5 6 7 8 9 10 11 12 13 14 15 16 17 18 19 20 21 22 23 24 25 26 27 28 29 30 31 32 33 34 35 36 37 38 39 40 41 42 43 44 45 46 47 48 49 50
000
ASUS43 KDMX 051301
RWRIA

WEATHER ROUNDUP FOR IOWA
NATIONAL WEATHER SERVICE DES MOINES IA
700 AM CST MON DEC 05 2016

NOTE: "FAIR" INDICATES FEW OR NO CLOUDS BELOW 12,000 FEET WITH NO
SIGNIFICANT WEATHER AND/OR OBSTRUCTIONS TO VISIBILITY.

* - THESE STATIONS ARE NOT NWS STATIONS...THUS NOT UNDER NWS
QUALITY CONTROL.  THEY ALSO DO NOT REPORT WEATHER SUCH
AS PRECIPITATION OR FOG.

IAZ001>003-012>014-020>022-031>034-043>046-051400-
   NORTHWEST IOWA

CITY           SKY/WX    TMP DP  RH WIND       PRES   REMARKS
CARROLL *      CLOUDY    36  34  93 S12G18    29.77F WCI  27
CHEROKEE *     MOCLDY    36  32  87 S13G21    29.70F WCI  27
DENISON *      CLOUDY    36  32  87 S14       29.72F WCI  27
LE MARS *      CLOUDY    36  30  80 S16       29.67F WCI  26
ORANGE CITY *  CLOUDY    36  32  87 S18       29.64F WCI  25
SHELDON *      CLOUDY    36  32  87 S18       29.64F WCI  25
SIOUX CITY     CLOUDY    40  30  67 S12       29.69F WCI  33
SPENCER        CLOUDY    34  31  88 S18       29.69F WCI  23
STORM LAKE *   CLOUDY    32  30  93 S16       29.72F WCI  21
$$

IAZ055>058-069>071-079>083-090>094-051400-
   SOUTHWEST IOWA

CITY           SKY/WX    TMP DP  RH WIND       PRES   REMARKS
ATLANTIC *     CLOUDY    36  32  87 S10       29.80F WCI  28
AUDUBON *      CLOUDY    36  30  80 S5        29.79F WCI  32
CLARINDA *       N/A     30  30 100 SW3       29.86S
COUNCIL BLFS * MOCLDY    36  32  87 S9        29.77F WCI  29
CRESTON *      PTCLDY    30  30 100 SE12      29.85S WCI  21
HARLAN  *      CLOUDY    34  34 100 S7        29.81F WCI  28
LAMONI         FOG       30  29  96 S8        29.88S VSB 3/4 WCI  22
RED OAK *      PTCLDY    34  32  93 S7        29.82F WCI  28
SHENANDOAH *   CLEAR     34  32  93 S15G22    29.82F WCI  24
$$

IAZ047>049-059>061-072>074-084-051400-
   CENTRAL IOWA

CITY           SKY/WX    TMP DP  RH WIND       PRES   REMARKS
AMES           CLOUDY    31  31 100 SE6       29.84F FOG     WCI  25
ANKENY *       CLOUDY    32 N/A N/A SE7       29.87S HAZE    WCI  26
BOONE *        CLOUDY    30  30 100 S8        29.81F WCI  23
CHARITON *     FOG       30  30 100 S9        29.88S VSB 1/4 WCI  22
DES MOINES     CLOUDY    32  31  96 S10       29.86F FOG     WCI  24
GRINNELL*      SNOW      32  32  99 S7        29.89S VSB 1/4 WCI  26
KNOXVILLE *    FOG       32  32 100 S12       29.86F VSB<1/4 WCI  23
MARSHALLTOWN   FOG       31  31 100 S12       29.85F VSB 1/2 WCI  22
NEWTON *       FOG       32  32 100 SE14      29.86F VSB 1/4 WCI  22
PELLA *        FOG       32  32  99 SE6       29.89F VSB 1/4 WCI  27
PERRY *          N/A     33  32  99 SE8       29.82F WCI  25
$$

IAZ004>006-015-016-023>025-035-036-051400-
   NORTH CENTRAL IOWA

CITY           SKY/WX    TMP DP  RH WIND       PRES   REMARKS
ALGONA *       CLOUDY    34  32  93 S14       29.76F WCI  24
CLARION *      CLOUDY    32  32 100 S13       29.81S WCI  22
ESTHERVILLE    CLOUDY    33  31  92 S17       29.72F WCI  22
FORT DODGE *   CLOUDY    36  28  75 S7        29.80S WCI  30
MASON CITY     CLOUDY    32  30  92 S13       29.82S WCI  22
WEBSTER CITY * MOCLDY    32  32 100 S15       29.79F WCI  22
IOWA FALLS *   FOG       31  30  96 SE9       29.85R VSB 3/4 WCI  23
$$

IAZ007>011-017>019-026>030-037>042-050>054-066-051400-
   NORTHEAST IOWA

CITY           SKY/WX    TMP DP  RH WIND       PRES   REMARKS
CEDAR RAPIDS   FOG       31  31 100 S10       29.91F VSB 1/4 WCI  22
CHARLES CITY * FOG       30  30 100 SE10      29.85S VSB 1/4 WCI  21
CLINTON *      CLOUDY    32  31  96 S7        29.97F FOG     WCI  26
DECORAH *      FOG       30  30 100 S10       29.87R VSB 1/2 WCI  21
DUBUQUE        SNOW      31  31 100 S10       29.93F VSB 1/4 WCI  22
MONTICELLO *   FOG       32  32 100 S7        29.92F VSB 1/4 WCI  26
OELWEIN *      FOG       32  32 100 S17       29.89S VSB<1/4 WCI  21
WATERLOO       FOG       31  31 100 S13       29.87F VSB 1/2 WCI  21
$$

IAZ064-065-067-068-078-051400-
   EAST CENTRAL IOWA

CITY           SKY/WX    TMP DP  RH WIND       PRES   REMARKS
DAVENPORT      FOG       31  31 100 S10       29.97F VSB 1/2 WCI  22
IOWA CITY      FOG       32  32 100 SE9       29.96S VSB 1/2 WCI  24
MUSCATINE *    FOG       32  32 100 S6        29.97F VSB 3/4 WCI  26
QUAD CITIES    FOG       32  30  92 S7        29.97F VSB 3/4 WCI  26
$$

IAZ062-063-075>077-085>089-095>099-051400-
   SOUTHEAST IOWA

CITY           SKY/WX    TMP DP  RH WIND       PRES   REMARKS
BURLINGTON     FOG       32  32 100 SE7       29.97S VSB 1/4 WCI  26
FAIRFIELD *    FOG       32  32 100 SE8       29.93S VSB<1/4 WCI  25
FORT MADISON * FOG       32  32 100 SE5       29.97S VSB 1/4 WCI  27
KEOKUK *       FOG       32  32 100 SE9       29.97S VSB<1/4 WCI  24
OSKALOOSA *    SNOW      32  31  99 SE8       29.90F VSB 1/4 WCI  24
CENTERVILLE *  FOG       28  28 100 SE6       29.93R VSB 3/4 WCI  22
OTTUMWA        FOG       32  31  96 S8        29.91F VSB 1/4 WCI  25
WASHINGTON *   FOG       32  32 100 S9        29.95S VSB<1/4 WCI  24
$$

ABBREVIATIONS USED IN REMARKS
   TC - TEMPERATURES IN CELSIUS
  WCI - WIND CHILL INDEX
   HX - HEAT INDEX
  VSB - VISIBILITY
$$





USA.gov is the U.S. government's official web portal to all federal, state and local government web resources and services.